This is the latest recevied weather packets stored in our database for station/object KC0FGX-1. If no packets are shown the sender has not sent any weather packets the latest 10 day(s).
| Time | Temp. | Humidity | Pressure | Rain* | Wind** | Luminosity | Snow |
|---|---|---|---|---|---|---|---|
| 1777172082 | 18.33° C | 56% | 1010.3 hPa | 0 mm | - | - | - |
| 1777170711 | 18.89° C | 57% | 1009.5 hPa | 0 mm | - | - | - |
| 1777170282 | 18.89° C | 57% | 1009.3 hPa | 0 mm | - | - | - |
| 1777168911 | 18.89° C | 57% | 1009.2 hPa | 0 mm | - | - | - |
| 1777168482 | 19.44° C | 56% | 1009.3 hPa | 0 mm | - | - | - |
| 1777167110 | 19.44° C | 55% | 1009.5 hPa | 0 mm | - | - | - |
| 1777166682 | 19.44° C | 53% | 1009.6 hPa | 0 mm | - | - | - |
| 1777165310 | 20° C | 50% | 1009.5 hPa | 0 mm | - | - | - |
| 1777164882 | 20.56° C | 49% | 1009.4 hPa | 0 mm | - | - | - |
| 1777163511 | 21.11° C | 47% | 1009.5 hPa | 0 mm | - | - | - |
| 1777163083 | 21.67° C | 46% | 1009.6 hPa | 0 mm | - | - | - |
| 1777161710 | 21.67° C | 43% | 1009.6 hPa | 0 mm | - | - | - |
| 1777161282 | 21.67° C | 43% | 1009.7 hPa | 0 mm | - | - | - |
| 1777159911 | 22.22° C | 41% | 1009.9 hPa | 0 mm | - | - | - |
| 1777159482 | 22.22° C | 41% | 1009.9 hPa | 0 mm | - | - | - |
| 1777158112 | 22.22° C | 41% | 1009.9 hPa | 0 mm | - | - | - |
| 1777157682 | 22.78° C | 40% | 1009.9 hPa | 0 mm | - | - | - |
| 1777156312 | 22.22° C | 42% | 1009.7 hPa | 0 mm | - | - | - |
| 1777155882 | 22.78° C | 39% | 1009.5 hPa | 0 mm | - | - | - |
| 1777154510 | 23.33° C | 40% | 1009.5 hPa | 0 mm | - | - | - |
| 1777154082 | 23.33° C | 39% | 1009.5 hPa | 0 mm | - | - | - |
| 1777152710 | 22.78° C | 40% | 1009.6 hPa | 0 mm | - | - | - |
| 1777152282 | 23.33° C | 38% | 1009.6 hPa | 0 mm | - | - | - |
| 1777150910 | 22.78° C | 37% | 1009.7 hPa | 0 mm | - | - | - |
| 1777150481 | 23.33° C | 38% | 1009.7 hPa | 0 mm | - | - | - |
* Rain latest hour (hover to see other rain measurements)
** Current wind speed in m/s (hover to see current wind gust speed)